Terminal Aerodrome Forecast
Issued by NWS

Home | Current Version | Previous Version | Text Only | Print | Product List | Glossary On
Versions: 1 2 3 4 5 6 7 8 9 10 11 12 13 14 15 16 17 18 19 20 21 22 23 24 25 26 27 28 29 30 31 32 33 34 35
000
FTUS45 KBOU 161753
TAFAPA
TAF
KAPA 161753Z 1618/1718 00000KT P6SM FEW080 SCT150 BKN220
     FM162000 VRB04KT P6SM SCT060 BKN080 OVC120
     FM170500 17004KT P6SM FEW080 BKN140=

USA.gov is the U.S. government's official web portal to all federal, state and local government web resources and services.